1505912400.41,5656,15.75,73428.8,8.31,-0.45,-1.21,0,*74
1505912401.6,5657,15.75,73428.8,8.31,-0.37,-1.09,0,*7A
1505912402.82,5658,15.75,73430.8,8.31,-0.27,-1.01,0,*7C
1505912404.01,5659,15.75,73430.5,8.31,-0.15,-0.89,0,*4D
1505912405.21,5660,15.75,73430.3,8.31,-0.49,-1.13,0,*7C
1505912406.4,5661,15.75,73430.3,8.29,-0.03,-0.73,0,*7D
1505912407.57,5662,15.75,73428.8,8.31,-0.03,-0.77,0,*73
1505912408.76,5663,15.75,73428.0,8.29,0.05,-0.65,0,*53
1505912409.97,5664,15.75,73426.5,8.31,0.41,-0.27,0,*6B
1505912411.16,5665,15.75,73430.8,8.31,0.25,-0.33,0,*6D
1505912412.36,5666,15.75,73424.5,8.31,0.37,-0.23,0,*6C
1505912413.6,5667,15.75,73426.0,8.33,0.47,-0.23,0,*68
1505912414.79,5668,15.75,73424.3,8.35,0.29,-0.29,0,*63
1505912415.98,5669,15.75,73424.5,8.35,0.29,-0.41,0,*6C
1505912417.16,5670,15.75,73424.8,8.33,0.01,-0.61,0,*5A
1505912418.34,5671,15.75,73430.8,8.35,0.13,-0.57,0,*6B
1505912419.52,5672,15.75,73424.5,8.35,-0.33,-1.17,0,*72
1505912420.76,5673,15.75,73424.5,8.33,-0.27,-1.01,0,*77
1505912421.98,5674,15.75,73426.0,8.33,0.29,-0.45,0,*62
1505912423.19,5675,15.75,73424.0,8.33,0.17,-0.49,0,*62
1505912424.39,5676,15.75,73422.8,8.35,-0.11,-0.93,0,*4B
1505912425.61,5677,15.75,73424.3,8.33,-0.37,-1.13,0,*71
1505912426.8,5678,15.75,73424.3,8.33,0.09,-0.69,0,*52
1505912428.01,5679,15.75,73422.5,8.33,-0.03,-0.85,0,*76
1505912429.23,5680,15.75,73424.0,8.33,-0.11,-0.89,0,*4F
1505912430.42,5681,15.75,73424.0,8.31,0.25,-0.57,0,*65
1505912431.65,5682,15.75,73422.0,8.33,0.47,-0.27,0,*67
1505912432.84,5683,15.75,73426.8,8.35,0.25,-0.45,0,*60
1505912434.06,5684,15.75,73426.0,8.33,0.37,-0.33,0,*63
1505912435.27,5685,15.75,73420.8,8.33,0.29,-0.45,0,*6C
1505912436.49,5686,15.75,73420.0,8.33,0.51,-0.15,0,*65
1505912437.69,5687,15.75,73426.0,8.33,0.75,0.01,0,*7A
1505912438.88,5688,15.75,73422.5,8.35,0.75,-0.07,0,*58
1505912440.06,5689,15.75,73420.5,8.35,0.13,-0.73,0,*6A
1505912441.28,5690,15.75,73422.3,8.33,0.25,-0.49,0,*68
1505912442.47,5691,15.75,73424.0,8.35,0.47,-0.19,0,*6E
1505912443.68,5692,15.75,73422.8,8.35,0.79,0.13,0,*47
1505912444.9,5693,15.75,73424.0,8.35,0.87,0.17,0,*43
1505912446.12,5694,15.75,73424.3,8.39,1.09,0.59,0,*75
1505912447.33,5695,15.75,73426.3,8.39,1.43,0.83,0,*7D
1505912448.54,5696,15.75,73422.0,8.41,1.41,0.79,0,*76
1505912449.78,5697,15.75,73422.8,8.41,0.83,0.17,0,*40
1505912451.01,5698,15.75,73420.3,8.41,0.83,0.17,0,*4F
1505912452.26,5699,15.75,73424.3,8.41,0.91,0.21,0,*48
1505912453.5,5700,15.75,73426.0,8.41,0.95,0.47,0,*4D
1505912454.74,5701,15.75,73422.3,8.41,0.95,0.47,0,*4C
1505912455.94,5702,15.75,73426.3,8.45,0.97,0.55,0,*4A
1505912457.19,5703,15.75,73424.3,8.47,1.29,0.87,0,*72
1505912458.44,5704,15.75,73422.3,8.47,1.63,1.17,0,*43
1505912459.67,5705,15.75,73420.8,8.47,1.05,0.55,0,*75
1505912460.9,5706,15.75,73420.5,8.49,1.29,0.79,0,*78
1505912462.15,5707,15.75,73422.8,8.51,1.33,0.75,0,*77
1505912463.4,5708,15.75,73424.0,8.51,1.71,1.09,0,*44
1505912464.62,5709,15.75,73422.5,8.53,1.47,0.83,0,*71
1505912465.82,5710,15.75,73422.3,8.53,1.71,1.05,0,*43
1505912467.06,5711,15.75,73424.5,8.55,2.21,1.59,0,*4B
1505912468.3,5712,15.75,73426.3,8.55,2.09,1.25,0,*49
1505912469.55,5713,15.75,73422.8,8.59,1.43,0.59,0,*73
1505912470.8,5714,15.75,73422.5,8.59,1.55,0.83,0,*74
1505912472.02,5715,15.75,73424.0,8.63,1.79,0.75,0,*7B
1505912473.25,5716,15.75,73426.0,8.65,1.97,0.83,0,*77
1505912474.49,5717,15.75,73424.0,8.67,1.63,0.41,0,*71
1505912475.72,5718,15.75,73422.8,8.67,1.09,-0.37,0,*5E
1505912476.96,5719,15.75,73424.5,8.67,1.09,-0.37,0,*5F
1505912478.19,5720,15.75,73422.8,8.67,1.09,-0.45,0,*50
1505912479.37,5721,15.75,73426.3,8.69,0.97,-0.57,0,*6A
1505912480.61,5722,15.75,73420.8,8.67,0.47,-1.09,0,*50
1505912481.83,5723,15.75,73422.0,8.69,0.55,-0.93,0,*6E
1505912483.06,5724,15.75,73424.0,8.69,0.47,-1.09,0,*58
1505912484.28,5725,15.75,73420.8,8.67,0.79,-0.57,0,*60
1505912485.51,5726,15.75,73420.0,8.67,0.91,-0.57,0,*65
1505912486.72,5727,15.75,73422.0,8.69,0.41,-1.13,0,*56
1505912487.93,5728,15.75,73422.3,8.69,-0.23,-1.79,0,*7C
1505912489.13,5729,15.75,73420.3,8.69,0.29,-1.25,0,*53
1505912490.3,5730,15.75,73422.5,8.69,-0.07,-1.59,0,*41
1505912491.5,5731,15.75,73418.8,8.69,-0.29,-1.83,0,*7B
1505912492.68,5732,15.75,73422.5,8.69,-0.07,-1.59,0,*43
1505912493.9,5733,15.75,73420.5,8.69,0.17,-1.35,0,*54
1505912495.12,5734,15.75,73420.0,8.69,0.17,-1.43,0,*52
1505912496.36,5735,15.75,73424.3,8.71,0.71,-0.93,0,*66
1505912497.6,5736,15.75,73420.0,8.71,0.59,-1.01,0,*55
1505912498.81,5737,15.75,73422.5,8.73,0.33,-1.05,0,*5E
1505912500.03,5738,15.75,73420.5,8.73,0.21,-1.01,0,*56
1505912501.23,5739,15.75,73420.3,8.73,0.33,-0.85,0,*69
1505912502.44,5740,15.75,73424.5,8.71,0.67,-0.45,0,*68
1505912503.65,5741,15.75,73420.3,8.73,0.13,-1.01,0,*59
1505912504.86,5742,15.81,73426.8,8.73,-0.11,-1.05,0,*71
1505912506.06,5743,15.75,73422.8,8.73,-0.29,-1.47,0,*7D
1505912507.25,5744,15.75,73420.5,8.73,0.01,-1.05,0,*6B
1505912508.46,5745,15.75,73422.8,8.71,0.09,-1.09,0,*6C
1505912509.65,5746,15.75,73422.8,8.73,0.25,-0.77,0,*6B
1505912510.9,5747,15.75,73420.3,8.71,0.79,-0.27,0,*64
1505912512.12,5748,15.75,73422.0,8.71,0.91,-0.07,0,*5F
1505912513.32,5749,15.75,73422.0,8.73,0.83,-0.11,0,*68
1505912514.49,5750,15.75,73422.8,8.73,0.75,0.01,0,*75
1505912515.68,5751,15.75,73426.0,8.73,0.87,0.09,0,*71
1505912516.91,5752,15.75,73420.0,8.73,1.09,0.21,0,*7F
1505912518.13,5753,15.75,73422.8,8.75,0.79,-0.11,0,*60
1505912519.35,5754,15.75,73420.5,8.77,0.25,-0.57,0,*6E
1505912520.58,5755,15.75,73422.5,8.77,0.47,-0.33,0,*69
1505912521.79,5756,15.75,73422.5,8.77,0.51,0.01,0,*71
1505912523.01,5757,15.75,73420.0,8.77,0.97,0.41,0,*4E
1505912524.23,5758,15.81,73424.8,8.77,1.41,0.91,0,*76
1505912525.48,5759,15.75,73420.5,8.77,1.59,1.13,0,*45
1505912526.71,5760,15.75,73424.3,8.77,1.75,1.37,0,*47
1505912527.93,5761,15.75,73422.5,8.79,1.89,1.55,0,*4F
1505912529.17,5762,15.75,73424.3,8.81,2.17,1.89,0,*4E
1505912530.38,5763,15.75,73422.8,8.79,1.97,1.79,0,*4C
1505912531.62,5764,15.75,73424.3,8.81,2.09,1.97,0,*48
1505912532.84,5765,15.75,73420.8,8.81,2.35,2.25,0,*4C
1505912534.06,5766,15.75,73420.0,8.85,2.05,1.83,0,*47
1505912535.29,5767,15.75,73422.0,8.85,2.01,1.79,0,*47
1505912536.53,5768,15.75,73422.5,8.85,1.89,1.71,0,*43
1505912537.75,5769,15.81,73422.5,8.87,2.25,2.09,0,*49
1505912538.96,5770,15.75,73416.8,8.87,2.59,2.47,0,*40
1505912540.21,5771,15.75,73416.8,8.89,2.81,2.69,0,*46
1505912541.43,5772,15.75,73424.0,8.89,2.69,2.65,0,*4F
1505912542.65,5773,15.75,73418.3,8.91,2.51,2.39,0,*45
1505912543.85,5774,15.75,73422.0,8.91,2.61,2.47,0,*48
1505912545.08,5775,15.75,73420.5,8.91,2.59,2.51,0,*45
1505912546.33,5776,15.75,73422.5,8.93,2.51,2.51,0,*4C
1505912547.54,5777,15.75,73420.0,8.95,2.89,2.77,0,*4A
1505912548.8,5778,15.81,73424.3,8.93,2.51,2.51,0,*42
1505912550.02,5779,15.81,73424.8,8.95,2.51,2.51,0,*45
1505912551.25,5780,15.81,73426.0,8.97,2.81,2.65,0,*4B
1505912552.49,5781,15.75,73420.5,8.97,2.09,2.05,0,*4C
1505912553.71,5782,15.75,73422.3,8.99,2.09,2.09,0,*4D
1505912554.92,5783,15.81,73424.0,8.99,2.09,1.97,0,*48
1505912556.16,5784,15.75,73426.0,8.97,1.59,1.55,0,*49
1505912557.4,5785,15.81,73422.5,8.97,1.63,1.47,0,*42
1505912558.59,5786,15.75,73422.0,8.99,1.25,1.01,0,*4F
1505912559.81,5787,15.81,73424.8,8.99,1.47,1.33,0,*4B
1505912561.0,5788,15.75,73422.8,8.99,1.97,1.75,0,*4B
1505912562.2,5789,15.75,73420.8,8.99,2.27,2.17,0,*45
1505912563.45,5790,15.75,73420.3,9.01,2.01,1.67,0,*4D
1505912564.66,5791,15.75,73422.0,9.03,1.85,1.59,0,*4C
1505912565.88,5792,15.75,73424.3,9.01,1.51,1.01,0,*49
1505912567.1,5793,15.81,73424.5,9.03,1.13,0.63,0,*79
1505912568.32,5794,15.75,73422.3,9.03,1.37,0.95,0,*71
1505912569.55,5795,15.81,73424.5,9.05,1.51,0.95,0,*76
1505912570.76,5796,15.75,73420.8,9.05,1.05,0.55,0,*78
1505912571.97,5797,15.81,73424.8,9.05,0.37,-0.29,0,*6F
1505912573.21,5798,15.75,73422.5,9.05,1.17,0.67,0,*74
1505912574.42,5799,15.81,73422.3,9.09,0.95,0.29,0,*48
1505912575.64,5800,15.81,73422.8,9.05,1.05,0.47,0,*7B
1505912576.83,5801,15.75,73420.8,9.09,0.97,0.37,0,*4B
1505912578.06,5802,15.75,73420.3,9.09,1.13,0.63,0,*74
1505912579.29,5803,15.75,73422.3,9.09,1.09,0.37,0,*7F
1505912580.49,5804,15.75,73422.3,9.13,1.13,0.43,0,*7B
1505912581.72,5805,15.75,73422.3,9.13,1.37,0.63,0,*7E
1505912582.91,5806,15.75,73422.5,9.13,1.41,0.67,0,*78
1505912584.14,5807,15.75,73418.8,9.17,1.21,0.71,0,*7C
1505912585.36,5808,15.75,73420.0,9.17,1.43,0.91,0,*79
1505912586.59,5809,15.75,73422.5,9.21,1.13,0.51,0,*74
1505912587.82,5810,15.75,73420.8,9.21,1.17,0.51,0,*78
1505912589.05,5811,15.75,73422.3,9.21,1.37,0.67,0,*7E
1505912590.3,5812,15.81,73420.5,9.23,1.37,0.63,0,*7B
1505912591.52,5813,15.81,73420.3,9.25,1.17,0.47,0,*78
1505912592.72,5814,15.75,73418.8,9.25,0.91,0.05,0,*76
1505912593.97,5815,15.75,73420.5,9.31,1.33,0.59,0,*72
1505912595.21,5816,15.81,73420.0,9.31,1.47,0.83,0,*75
1505912596.44,5817,15.81,73420.3,9.31,1.43,0.71,0,*7D
1505912597.64,5818,15.81,73420.5,9.35,0.63,0.01,0,*72
1505912598.86,5819,15.75,73420.8,9.35,0.63,-0.11,0,*6F
1505912600.05,5820,15.75,73418.8,9.35,1.01,0.05,0,*48
1505912601.24,5821,15.75,73420.8,9.37,1.41,0.79,0,*74
1505912602.48,5822,15.75,73420.3,9.39,1.33,0.67,0,*73
1505912603.73,5823,15.75,73420.0,9.41,1.33,0.63,0,*79
1505912604.93,5824,15.81,73422.8,9.43,1.41,0.79,0,*72
1505912606.11,5825,15.75,73418.0,9.47,1.41,0.79,0,*77
1505912607.3,5826,15.81,73420.3,9.47,1.01,0.41,0,*7B
1505912608.53,5827,15.75,73420.5,9.47,1.37,0.91,0,*72
1505912609.76,5828,15.81,73420.0,9.53,1.09,0.43,0,*7A
1505912611.01,5829,15.81,73420.3,9.53,1.29,0.55,0,*7E
1505912612.23,5830,15.81,73420.5,9.55,1.13,0.47,0,*7A
1505912613.45,5831,15.81,73422.3,9.55,1.25,0.59,0,*71
1505912614.71,5832,15.81,73420.5,9.57,1.37,0.59,0,*73
1505912615.92,5833,15.75,73420.5,9.61,1.41,0.67,0,*7B
1505912617.18,5834,15.75,73416.0,9.61,1.29,0.55,0,*73
1505912618.38,5835,15.75,73416.5,9.63,1.21,0.43,0,*7F
1505912619.6,5836,15.81,73422.3,9.65,1.01,0.37,0,*7B
1505912620.81,5837,15.75,73416.5,9.67,1.25,0.67,0,*7B
1505912622.04,5838,15.81,73418.5,9.69,1.13,0.43,0,*79
1505912623.28,5839,15.81,73420.3,9.69,0.83,0.21,0,*44
1505912624.49,5840,15.81,73418.8,9.71,0.83,0.21,0,*43
1505912625.73,5841,15.81,73420.0,9.73,0.83,0.33,0,*43
1505912626.97,5842,15.81,73420.0,9.73,0.79,0.37,0,*41
1505912628.18,5843,15.75,73418.0,9.79,0.63,0.17,0,*43
1505912629.36,5844,15.75,73418.0,9.79,0.21,0.01,0,*75
1505912630.56,5845,15.81,73422.8,9.79,0.63,0.33,0,*43
1505912631.8,5846,15.81,73418.5,9.81,0.79,0.63,0,*49
1505912633.03,5847,15.75,73414.3,9.81,0.63,0.51,0,*42
1505912634.19,5848,15.81,73420.8,9.83,0.09,0.09,0,*4E
1505912635.41,5849,15.81,73416.8,9.81,-0.29,-0.23,0,*47
1505912636.61,5850,15.81,73418.3,9.81,-0.33,-0.33,0,*45
1505912637.81,5851,15.75,73418.0,9.83,0.37,0.33,0,*42
1505912639.04,5852,15.81,73418.8,9.81,0.17,0.17,0,*47
1505912640.25,5853,15.75,73412.5,9.79,0.55,0.63,0,*44
1505912641.47,5854,15.81,73416.8,9.79,0.55,0.55,0,*46
1505912642.67,5855,15.81,73418.8,9.79,0.33,0.41,0,*42
1505912643.88,5856,15.81,73418.8,9.79,0.51,0.63,0,*45
1505912645.12,5857,15.75,73416.5,9.81,0.33,0.51,0,*46
1505912646.33,5858,15.81,73416.8,9.83,0.55,0.67,0,*4E
1505912647.56,5859,15.81,73418.8,9.81,0.63,0.63,0,*4C
1505912648.75,5860,15.81,73418.5,9.83,1.05,1.17,0,*47
1505912649.95,5861,15.81,73418.3,9.83,1.05,1.17,0,*46
1505912651.18,5862,15.75,73416.0,9.81,0.67,0.67,0,*44
1505912652.38,5863,15.81,73416.0,9.85,0.43,0.47,0,*45
1505912653.59,5864,15.81,73416.8,9.83,0.83,0.83,0,*40
1505912654.81,5865,15.81,73418.3,9.83,0.71,0.83,0,*4C
1505912656.03,5866,15.81,73416.5,9.83,0.91,1.09,0,*72
1505912657.25,5867,15.81,73418.5,9.83,0.59,0.91,0,*47
1505912658.44,5868,15.81,73416.0,9.83,1.05,1.43,0,*4E
1505912659.68,5869,15.75,73414.3,9.85,0.95,1.33,0,*76
1505912660.93,5870,15.81,73418.3,9.85,1.21,1.63,0,*45
1505912662.18,5871,15.81,73418.3,9.85,1.55,1.93,0,*48
1505912663.4,5872,15.81,73418.0,9.85,1.79,2.13,0,*4E
1505912664.6,5873,15.81,73416.8,9.87,1.83,2.09,0,*43
1505912665.83,5874,15.81,73418.8,9.87,2.17,2.39,0,*49
1505912667.02,5875,15.81,73416.5,9.87,1.83,1.93,0,*45
1505912668.25,5876,15.81,73418.5,9.87,1.37,1.55,0,*43
1505912669.47,5877,15.81,73418.5,9.87,1.67,1.71,0,*41
1505912670.69,5878,15.81,73416.5,9.87,1.55,1.47,0,*4A
1505912671.92,5879,15.81,73416.5,9.85,0.67,0.59,0,*47
1505912673.15,5880,15.81,73418.8,9.85,0.95,0.83,0,*4B
1505912674.34,5881,15.81,73418.5,9.85,0.97,0.97,0,*4D
1505912675.55,5882,15.81,73418.8,9.83,0.79,0.67,0,*47
1505912676.79,5883,15.81,73418.3,9.85,0.79,0.55,0,*41
1505912678.0,5884,15.75,73414.8,9.83,0.33,0.17,0,*48
1505912679.21,5885,15.81,73418.0,9.83,0.37,0.21,0,*48
1505912680.4,5886,15.81,73416.5,9.83,1.09,0.97,0,*7A
1505912681.62,5887,15.75,73418.3,9.83,2.25,2.25,0,*4D
1505912682.87,5888,15.81,73418.0,9.85,1.51,1.33,0,*40
1505912684.12,5889,15.81,73416.8,9.85,2.17,1.93,0,*4A
1505912685.32,5890,15.81,73420.3,9.87,2.27,1.85,0,*44
1505912686.53,5891,15.81,73418.3,9.87,2.05,1.67,0,*49
1505912687.75,5892,15.81,73422.8,9.89,1.85,1.41,0,*4B
1505912688.97,5893,15.81,73422.0,9.91,1.47,0.87,0,*76
1505912690.16,5894,15.81,73422.3,9.91,1.71,0.97,0,*75
1505912691.38,5895,15.81,73422.0,9.95,1.89,1.13,0,*4A
1505912692.61,5896,15.81,73422.0,9.95,2.05,1.25,0,*4B
1505912693.8,5897,15.81,73420.8,9.95,2.09,1.05,0,*44
1505912694.99,5898,15.81,73418.3,9.99,2.21,0.97,0,*77
1505912696.22,5899,15.81,73418.5,10.01,1.29,-0.07,0,*50
1505912697.43,5900,15.81,73416.8,9.99,0.59,-0.85,0,*64
1505912698.63,5901,15.81,73422.3,9.99,0.79,-0.73,0,*6E
1505912699.82,5902,15.75,73416.5,9.99,0.63,-0.77,0,*62
1505912701.02,5903,15.81,73416.3,10.01,0.97,-0.49,0,*5C
1505912702.28,5904,15.81,73418.3,10.01,1.37,-0.23,0,*6C
1505912703.53,5905,15.81,73416.8,10.01,1.47,-0.23,0,*6A
1505912704.72,5906,15.75,73416.0,10.03,2.13,0.43,0,*42
1505912705.95,5907,15.81,73418.3,10.09,1.97,0.29,0,*4A
1505912707.17,5908,15.81,73418.5,10.09,2.13,0.37,0,*45
1505912708.39,5909,15.81,73418.8,10.13,2.09,0.17,0,*46
1505912709.59,5910,15.81,73418.8,10.13,2.09,0.05,0,*7D
1505912710.76,5911,15.81,73418.0,10.17,1.79,-0.29,0,*6F
1505912711.97,5912,15.75,73412.3,10.17,1.59,-0.41,0,*60
1505912713.23,5913,15.81,73420.5,10.23,0.79,-1.47,0,*62
1505912714.48,5914,15.75,73416.3,10.23,0.41,-1.99,0,*6D
1505912715.73,5915,15.81,73420.3,10.23,-1.13,-3.51,0,*71
1505912716.99,5916,15.81,73416.8,10.23,-1.13,-3.59,0,*7A
1505912718.25,5917,15.81,73420.3,10.23,-0.27,-2.63,0,*45
1505912719.49,5918,15.81,73420.0,10.23,-1.43,-3.75,0,*7F
1505912720.68,5919,15.81,73418.0,10.21,-0.81,-3.11,0,*41
1505912721.92,5920,15.81,73422.5,10.23,-0.57,-2.63,0,*46
1505912723.12,5921,15.81,73418.3,10.25,-0.77,-2.67,0,*47
1505912724.36,5922,15.81,73418.8,10.27,-1.09,-3.15,0,*7A
1505912725.54,5923,15.81,73416.5,10.25,-1.51,-3.27,0,*75
1505912726.74,5924,15.81,73418.0,10.27,-1.67,-3.19,0,*78
1505912727.99,5925,15.81,73414.8,10.27,-1.43,-2.95,0,*7A
1505912729.23,5926,15.81,73416.5,10.27,-1.21,-2.59,0,*7D
1505912730.48,5927,15.81,73418.8,10.27,-1.21,-2.55,0,*70
1505912731.69,5928,15.81,73418.8,10.29,-1.13,-2.23,0,*71
1505912732.93,5929,15.81,73416.3,10.31,-1.95,-2.95,0,*7A
1505912734.14,5930,15.81,73416.5,10.29,-2.75,-3.75,0,*79
1505912735.33,5931,15.81,73412.5,10.29,-2.87,-3.75,0,*75
1505912736.53,5932,15.81,73416.3,10.29,-3.31,-4.13,0,*7D
1505912737.74,5933,15.81,73418.3,10.29,-3.51,-4.13,0,*7A
1505912738.94,5934,15.81,73420.5,10.25,-3.03,-3.71,0,*75
1505912740.12,5935,15.81,73416.3,10.25,-2.27,-2.83,0,*7F
1505912741.37,5936,15.81,73416.3,10.29,-2.11,-2.67,0,*7F
1505912742.58,5937,15.81,73422.0,10.27,-1.67,-2.39,0,*79
1505912743.8,5938,15.81,73416.8,10.29,-1.17,-1.99,0,*76
1505912745.04,5939,15.81,73418.8,10.31,-1.09,-2.23,0,*73
1505912746.26,5940,15.81,73420.3,10.31,-1.63,-2.95,0,*7C
1505912747.44,5941,15.81,73418.5,10.29,-1.79,-3.23,0,*73
1505912748.67,5942,15.81,73418.3,10.33,-2.07,-3.59,0,*7C
1505912749.85,5943,15.81,73420.5,10.33,-2.79,-4.49,0,*72
1505912751.09,5944,15.81,73420.5,10.33,-3.43,-5.27,0,*74
1505912752.33,5945,15.81,73418.5,10.33,-3.67,-5.89,0,*77
1505912753.57,5946,15.81,73416.5,10.35,-3.35,-5.81,0,*7D
1505912754.78,5947,15.81,73416.8,10.35,-3.19,-6.13,0,*7A
1505912756.01,5948,15.81,73418.3,10.35,-4.45,-7.73,0,*7C
1505912757.27,5949,15.81,73416.5,10.37,-6.23,-9.83,0,*7C
1505912758.47,5950,15.81,73422.3,10.33,-7.23,-10.89,0,*43
1505912759.68,5951,15.81,73418.8,10.33,-7.31,-11.01,0,*40
1505912760.92,5952,15.81,73418.3,10.33,-7.35,-11.29,0,*4D
1505912762.16,5953,15.81,73418.0,10.29,-7.95,-11.97,0,*48
1505912763.39,5954,15.81,73416.5,10.25,-7.91,-11.81,0,*40
1505912764.58,5955,15.81,73418.3,10.25,-6.05,-9.75,0,*7F
1505912765.76,5956,15.81,73416.3,10.25,-6.69,-10.09,0,*45
1505912767.01,5957,15.81,73418.8,10.23,-7.57,-10.89,0,*46
1505912768.23,5958,15.81,73416.8,10.21,-7.91,-10.93,0,*4A
1505912769.48,5959,15.81,73416.8,10.15,-8.11,-10.89,0,*40
1505912770.7,5960,15.81,73418.8,10.13,-7.65,-10.31,0,*43
1505912771.95,5961,15.81,73418.3,10.11,-6.97,-9.67,0,*77
1505912773.16,5962,15.81,73418.0,10.09,-6.73,-9.11,0,*76
1505912774.38,5963,15.81,73418.5,10.07,-6.51,-8.75,0,*7A
1505912775.58,5964,15.81,73422.3,10.03,-6.69,-8.81,0,*79
1505912776.81,5965,15.81,73416.0,10.03,-6.27,-8.11,0,*7B
1505912778.0,5966,15.81,73416.0,10.03,-6.13,-7.87,0,*7F
1505912779.19,5967,15.81,73416.3,10.03,-6.13,-7.87,0,*7E
1505912780.43,5968,15.81,73418.8,9.99,-5.69,-7.57,0,*49
1505912781.67,5969,15.81,73422.3,9.99,-5.69,-7.77,0,*4A
1505912782.87,5970,15.81,73422.8,9.93,-6.13,-8.25,0,*4E
1505912784.08,5971,15.81,73418.8,9.93,-6.13,-8.29,0,*43
1505912785.28,5972,15.81,73420.8,9.87,-6.51,-8.81,0,*41
1505912786.47,5973,15.81,73416.8,9.87,-6.09,-8.25,0,*43
1505912787.72,5974,15.81,73422.3,9.85,-7.05,-9.57,0,*4F
1505912788.96,5975,15.81,73422.5,9.81,-8.29,-10.79,0,*7F
1505912790.18,5976,15.81,73422.3,9.81,-7.19,-9.93,0,*4C
1505912791.38,5977,15.81,73420.8,9.77,-8.45,-10.85,0,*7D
1505912792.63,5978,15.81,73422.5,9.77,-8.89,-11.67,0,*7F
1505912793.82,5979,15.81,73416.3,9.79,-9.27,-12.29,0,*7C
1505912795.04,5980,15.81,73422.3,9.71,-9.57,-12.65,0,*7D
1505912796.25,5981,15.81,73418.3,9.71,-9.83,-12.39,0,*7C
1505912797.47,5982,15.81,73418.8,9.71,-8.63,-10.75,0,*7A
1505912798.66,5983,15.81,73418.8,9.71,-8.55,-10.45,0,*7D
1505912799.9,5984,15.81,73422.0,9.69,-9.01,-11.89,0,*72
1505912801.14,5985,15.81,73420.8,9.65,-9.97,-13.29,0,*78
1505912802.33,5986,15.81,73420.5,9.63,-10.97,-13.69,0,*41
1505912803.55,5987,15.81,73418.8,9.59,-10.71,-13.55,0,*4E
1505912804.76,5988,15.81,73418.8,9.59,-9.61,-12.25,0,*7E
1505912805.95,5989,15.81,73418.5,9.59,-9.27,-11.41,0,*7C
1505912807.19,5990,15.81,73420.8,9.57,-8.59,-10.63,0,*73
1505912808.38,5991,15.81,73420.8,9.59,-8.41,-10.05,0,*75
1505912809.57,5992,15.81,73418.8,9.59,-8.41,-10.05,0,*76
1505912810.83,5993,15.81,73420.8,9.57,-9.53,-11.33,0,*7F
1505912812.04,5994,15.81,73420.8,9.55,-10.75,-13.07,0,*43
1505912813.23,5995,15.81,73420.8,9.55,-10.93,-12.93,0,*46
1505912814.48,5996,15.81,73422.0,9.53,-10.45,-12.11,0,*42
1505912815.71,5997,15.81,73422.3,9.49,-9.61,-11.15,0,*71
1505912816.96,5998,15.81,73420.3,9.53,-9.37,-10.97,0,*7D
1505912818.19,5999,15.81,73422.8,9.49,-9.61,-10.97,0,*74
1505912819.4,6000,15.81,73422.8,9.49,-9.89,-11.19,0,*7F
1505912820.61,6001,15.81,73422.5,9.47,-10.15,-11.33,0,*45
1505912821.79,6002,15.81,73422.5,9.47,-9.97,-11.01,0,*75
1505912823.05,6003,15.81,73424.0,9.45,-10.19,-11.07,0,*4E
1505912824.27,6004,15.81,73422.3,9.45,-10.27,-11.01,0,*42
1505912825.51,6005,15.81,73422.8,9.45,-9.97,-10.41,0,*75
1505912826.75,6006,15.81,73416.0,9.41,-9.57,-10.01,0,*7A
1505912827.99,6007,15.81,73418.3,9.41,-9.05,-9.15,0,*41
1505912829.23,6008,15.81,73418.3,9.41,-9.15,-9.19,0,*43
1505912830.44,6009,15.81,73418.0,9.41,-9.19,-8.93,0,*4D
1505912831.7,6010,15.81,73420.0,9.41,-8.51,-7.95,0,*41
1505912832.91,6011,15.81,73416.3,9.41,-8.25,-7.53,0,*49
1505912834.15,6012,15.81,73418.3,9.41,-8.07,-7.53,0,*4A
1505912835.41,6013,15.81,73420.8,9.41,-7.99,-7.57,0,*47
1505912836.62,6014,15.81,73420.8,9.37,-8.55,-7.61,0,*4B
1505912837.83,6015,15.81,73416.5,9.39,-8.71,-7.19,0,*4D
1505912839.06,6016,15.81,73418.0,9.37,-7.35,-6.19,0,*4E
1505912840.24,6017,15.81,73420.0,9.37,-6.81,-5.97,0,*44
1505912841.45,6018,15.81,73420.5,9.35,-7.15,-6.31,0,*4A
1505912842.69,6019,15.81,73426.0,9.33,-9.11,-8.03,0,*48
1505912843.92,6020,15.81,73420.3,9.33,-9.41,-8.03,0,*47
1505912845.13,6021,15.81,73422.3,9.33,-9.27,-7.73,0,*4E
1505912846.36,6022,15.81,73422.8,9.27,-9.61,-7.83,0,*45
1505912847.6,6023,15.81,73422.3,9.31,-8.51,-6.51,0,*4F
1505912848.86,6024,15.81,73422.8,9.27,-7.99,-5.89,0,*42
1505912850.09,6025,15.81,73424.3,9.27,-7.91,-6.01,0,*48
1505912851.29,6026,15.81,73426.8,9.25,-8.03,-6.09,0,*45
1505912852.5,6027,15.81,73424.8,9.23,-8.41,-6.47,0,*4E
1505912853.73,6028,15.81,73426.3,9.23,-9.53,-7.49,0,*4C
1505912854.99,6029,15.81,73424.8,9.23,-9.53,-7.27,0,*45
1505912856.21,6030,15.81,73420.3,9.19,-9.83,-7.53,0,*4A
1505912857.41,6031,15.81,73426.5,9.17,-10.31,-7.87,0,*7D
1505912858.64,6032,15.81,73420.0,9.17,-9.49,-7.01,0,*47
1505912859.85,6033,15.81,73426.3,9.15,-9.75,-7.23,0,*4B
1505912861.07,6034,15.81,73422.3,9.11,-9.71,-7.15,0,*49
1505912862.28,6035,15.81,73420.5,9.11,-9.67,-7.15,0,*4F
1505912863.52,6036,15.81,73422.5,9.11,-9.41,-6.85,0,*40
1505912864.72,6037,15.81,73422.5,9.05,-8.67,-5.97,0,*41
1505912865.92,6038,15.81,73422.5,9.05,-8.63,-6.09,0,*4E
1505912867.13,6039,15.81,73420.3,9.05,-8.89,-6.35,0,*44
1505912868.37,6040,15.81,73420.0,9.01,-8.17,-5.61,0,*4B
1505912869.61,6041,15.81,73422.8,9.01,-7.87,-5.23,0,*4A
1505912870.85,6042,15.81,73424.0,9.01,-7.23,-4.73,0,*43
1505912872.08,6043,15.81,73424.5,9.01,-6.93,-4.45,0,*4D
1505912873.26,6044,15.81,73422.8,9.03,-6.69,-4.25,0,*4B
1505912874.47,6045,15.81,73422.0,9.01,-6.81,-4.37,0,*4D
1505912875.71,6046,15.81,73420.0,9.01,-6.27,-3.91,0,*49
1505912876.89,6047,15.81,73420.3,9.03,-6.13,-3.91,0,*4D
1505912878.06,6048,15.81,73420.8,9.03,-5.39,-3.19,0,*49
1505912879.27,6049,15.81,73424.8,9.03,-5.23,-3.03,0,*48
1505912880.5,6050,15.81,73424.3,9.05,-5.19,-2.99,0,*4D
1505912881.73,6051,15.81,73422.5,9.05,-5.19,-3.03,0,*4E
1505912882.97,6052,15.81,73426.3,9.11,-5.03,-2.95,0,*4D
1505912884.17,6053,15.81,73420.3,9.09,-4.77,-2.83,0,*40
1505912885.41,6054,15.81,73422.3,9.11,-4.61,-2.59,0,*4E
1505912886.62,6055,15.81,73424.0,9.11,-4.17,-2.35,0,*44
1505912887.81,6056,15.81,73424.5,9.13,-4.21,-2.43,0,*41
1505912889.03,6057,15.81,73424.8,9.13,-4.25,-2.47,0,*40
1505912890.22,6058,15.81,73424.8,9.13,-4.61,-2.95,0,*40
1505912891.39,6059,15.81,73422.0,9.13,-4.45,-2.91,0,*43
1505912892.58,6060,15.81,73424.0,9.13,-4.77,-3.23,0,*40
1505912893.8,6061,15.81,73424.3,9.13,-4.13,-2.71,0,*45
1505912895.02,6062,15.81,73426.3,9.13,-3.95,-2.59,0,*45
1505912896.26,6063,15.81,73424.0,9.11,-3.91,-2.59,0,*42
1505912897.5,6064,15.81,73426.8,9.11,-3.51,-2.23,0,*44
1505912898.74,6065,15.81,73420.3,9.11,-3.47,-2.27,0,*46
1505912899.95,6066,15.81,73426.0,9.09,-3.51,-2.27,0,*4B
1505912901.2,6067,15.81,73426.0,9.11,-3.83,-2.63,0,*4C
1505912902.38,6068,15.81,73424.3,9.09,-4.17,-3.15,0,*40
1505912903.57,6069,15.81,73426.0,9.03,-4.33,-3.35,0,*4F
1505912904.74,6070,15.81,73424.3,9.03,-4.09,-3.19,0,*40
1505912905.97,6071,15.81,73426.5,9.01,-3.67,-2.79,0,*4B
1505912907.23,6072,15.81,73426.3,9.01,-3.55,-2.59,0,*4B
1505912908.43,6073,15.81,73426.3,9.01,-3.11,-2.27,0,*43
1505912909.64,6074,15.81,73424.5,8.99,-2.63,-1.75,0,*44
1505912910.87,6075,15.81,73426.3,8.97,-2.07,-1.25,0,*4C
1505912912.08,6076,15.81,73426.3,8.99,-1.99,-1.21,0,*41
1505912913.31,6077,15.81,73424.8,8.99,-1.87,-1.09,0,*45
1505912914.57,6078,15.81,73426.3,8.97,-2.07,-1.35,0,*40
1505912915.77,6079,15.81,73420.8,8.99,-2.23,-1.47,0,*4C
1505912917.02,6080,15.81,73426.8,8.97,-1.87,-1.13,0,*48
1505912918.28,6081,15.81,73420.0,8.97,-2.07,-1.47,0,*43
1505912919.5,6082,15.81,73424.8,8.97,-1.59,-0.97,0,*74
1505912920.73,6083,15.81,73426.3,8.97,-1.83,-1.33,0,*4D
1505912921.99,6084,15.81,73426.3,8.97,-1.87,-1.43,0,*49
1505912923.19,6085,15.81,73424.0,8.95,-1.75,-1.35,0,*46
1505912924.42,6086,15.81,73426.3,8.95,-1.39,-0.89,0,*7B
1505912925.6,6087,15.81,73424.3,8.95,-1.25,-0.77,0,*76
1505912926.82,6088,15.81,73424.5,8.93,-1.33,-0.93,0,*72
1505912928.05,6089,15.81,73426.3,8.93,-1.09,-0.77,0,*70